Wind_Speed
55 56 58 61 64 66 69 72 74 74 75 75 75 75 75 73 71 68 66 65 64 63 60 56 52 48 45 43 40 36 34 31 25 19 21 22 23 25 31 40 54 68 82
55 56 58 61 64 67 69 72 74 74 75 75 75 75 74 72 70 67 65 64 63 61 58 54 50 46 44 41 38 35 33 31 27 21 20 20 19 21 27 36 47 60 72
56 57 58 61 64 67 70 72 74 74 75 75 75 74 73 71 69 66 64 62 61 60 56 52 48 45 42 40 37 35 32 30 27 23 19 18 17 17 22 31 41 53 63
56 57 59 61 64 67 70 72 73 74 74 74 74 73 72 70 68 65 63 61 60 58 55 51 47 43 41 38 36 33 31 29 26 23 19 17 15 15 19 27 37 47 57
57 58 59 61 64 67 69 72 73 73 73 73 73 72 71 69 67 64 61 60 59 57 54 50 46 42 40 37 35 33 30 28 25 22 19 17 14 13 18 25 34 43 51
57 58 60 62 64 67 70 72 72 72 72 73 72 71 70 68 65 63 61 60 58 56 53 49 45 41 38 36 35 33 31 28 25 22 19 16 13 12 16 24 32 40 46
58 59 60 63 65 68 69 71 71 71 71 71 71 70 69 67 64 61 59 58 57 55 52 48 44 40 36 34 33 32 31 28 25 22 18 15 12 11 16 24 31 38 44
59 60 61 64 66 68 69 70 70 70 70 70 69 68 67 66 63 60 58 57 56 54 52 48 44 40 36 33 31 30 29 27 25 22 18 13 11 11 15 23 31 36 41
60 61 63 65 67 68 69 70 70 69 68 68 68 66 65 64 62 59 57 55 54 53 51 48 45 40 36 32 30 29 28 26 25 22 18 13 10 10 15 22 30 36 39
62 63 64 66 67 68 68 68 68 67 66 66 66 65 63 62 61 59 57 54 53 51 50 48 45 41 36 32 29 27 26 25 24 22 17 12 9 9 13 21 29 35 38
64 65 66 67 67 67 67 67 66 65 64 64 64 64 62 61 60 58 55 54 52 50 49 47 45 41 36 32 29 26 25 23 22 20 16 12 8 8 13 20 28 33 37
66 66 66 66 66 66 65 64 64 63 61 61 62 62 61 59 58 56 54 53 51 50 48 46 44 42 37 32 28 25 23 22 21 19 16 12 7 6 12 19 26 31 36
65 65 65 65 65 64 63 62 61 60 59 59 59 60 59 57 56 54 52 51 50 49 48 46 44 43 39 32 28 25 23 21 19 17 15 12 7 4 10 17 24 29 34
63 63 63 63 63 61 60 59 58 57 57 56 57 57 56 55 54 52 51 49 48 48 47 45 44 43 41 35 29 26 22 20 18 16 14 12 7 2 8 15 22 27 31
59 59 60 60 60 58 57 56 55 55 54 54 54 55 54 53 52 50 48 47 46 46 46 45 44 43 40 36 29 25 22 19 17 15 13 10 6 1 5 12 18 23 27
57 57 57 57 57 56 55 54 53 53 52 51 52 52 52 51 50 49 47 46 45 45 45 44 42 42 39 36 29 24 21 18 16 13 11 8 5 2 6 10 15 19 24
55 55 55 55 54 54 53 52 51 50 49 49 49 50 50 49 48 47 46 45 44 43 43 43 42 41 39 36 30 24 20 17 14 11 8 6 5 4 8 11 15 19 22
52 53 54 54 53 52 52 50 48 47 47 47 47 47 47 47 46 46 45 44 43 42 42 42 41 40 39 36 31 25 20 15 12 9 6 4 4 4 7 11 14 18 21
51 51 52 52 52 51 50 48 46 45 44 44 44 45 45 45 44 43 43 43 42 41 41 41 40 40 39 36 32 26 20 14 10 6 3 2 3 5 7 10 14 18 22
50 51 51 50 50 49 47 45 43 42 41 42 42 42 43 42 41 41 41 41 40 39 39 39 39 39 38 36 32 27 20 14 8 4 1 2 4 6 8 10 15 19 23
52 52 51 49 49 47 45 43 40 39 39 40 40 40 40 40 39 39 40 39 39 38 38 38 38 38 38 36 33 28 21 14 7 2 1 4 6 8 9 12 16 20 23
52 52 50 48 46 44 42 40 38 37 36 37 37 37 38 37 37 37 38 38 37 36 36 36 37 37 37 36 33 29 23 15 7 1 4 7 9 10 11 14 18 21 23
52 51 49 46 44 42 40 38 36 34 34 35 35 35 35 35 35 35 36 36 36 35 35 35 36 37 37 36 33 30 24 16 7 1 6 9 11 12 14 15 19 22 25
52 50 47 44 43 41 38 36 33 32 32 32 33 32 33 32 32 33 34 34 34 33 33 34 35 36 36 35 33 30 26 18 9 1 7 11 14 15 16 17 19 22 26
51 48 45 43 41 39 36 33 30 29 29 30 30 30 30 30 30 31 32 33 33 32 32 33 34 35 35 35 33 30 27 21 11 1 8 14 16 17 18 19 20 23 26
49 46 43 41 39 36 34 30 28 27 27 27 28 27 27 27 28 29 31 31 31 31 31 32 33 34 34 34 33 30 27 22 14 2 9 16 19 19 20 21 22 24 27
Wind_Direction
327 328 330 333 335 336 337 338 338 339 340 341 341 342 344 344 343 343 342 342 342 342 341 340 340 341 340 338 336 334 333 332 332 317 300 288 272 251 234 223 216 212 210
325 326 329 331 334 335 336 337 338 339 340 341 342 343 344 345 344 344 344 343 344 344 343 342 342 342 341 340 339 337 335 333 332 327 309 296 279 256 235 223 216 211 210
323 325 327 329 332 334 335 336 337 339 340 341 342 343 345 345 345 345 345 344 345 345 344 344 344 344 343 342 341 339 337 334 332 330 318 303 285 259 234 221 214 210 209
321 323 325 328 331 333 334 336 337 338 340 341 342 343 345 346 346 346 345 345 346 346 346 346 345 345 345 344 343 341 339 336 333 330 323 309 289 260 231 216 210 207 207
319 321 324 326 329 331 333 334 336 337 339 340 342 343 345 347 346 346 346 346 347 348 347 347 347 346 347 346 346 345 342 339 335 330 324 313 292 257 226 211 205 204 204
318 320 322 325 327 329 331 333 335 336 338 340 341 343 345 347 347 346 346 347 348 349 349 348 348 347 347 347 346 346 345 343 339 332 325 314 293 255 223 208 201 200 201
316 318 320 323 325 327 330 331 333 335 337 339 341 343 345 347 347 347 347 348 349 349 349 349 348 347 346 346 346 346 344 343 340 335 327 314 293 254 220 205 199 198 199
314 317 318 320 323 325 328 330 331 333 336 338 340 342 344 346 347 347 348 348 349 349 350 350 349 348 346 346 345 345 345 343 340 336 329 315 291 253 220 205 198 197 198
313 315 316 318 320 323 326 328 329 331 334 336 339 342 344 346 347 348 348 349 349 350 350 350 350 349 347 346 346 345 344 343 341 338 332 319 288 250 219 204 198 196 196
311 313 314 316 318 320 323 325 327 329 332 335 338 341 344 346 347 348 349 349 350 350 351 351 351 350 348 346 345 345 344 343 342 340 335 322 292 248 217 204 198 195 195
309 310 311 314 316 319 321 324 325 327 330 333 336 339 343 345 347 348 349 349 351 351 352 352 351 351 349 347 346 345 346 346 345 345 341 330 299 247 215 202 197 195 194
306 308 309 311 314 317 320 322 324 325 328 331 335 338 342 345 347 348 348 349 350 352 352 353 353 353 351 349 348 347 347 347 347 347 345 339 316 245 212 200 196 195 195
304 306 308 310 313 315 318 320 322 323 326 330 333 337 341 344 347 348 348 349 350 351 352 353 354 354 354 352 350 350 348 347 347 348 347 345 332 251 208 199 196 194 194
303 305 308 310 312 314 317 320 321 321 324 328 332 336 339 343 346 348 348 349 349 350 352 353 354 355 356 355 353 351 350 349 348 349 350 352 351 271 197 194 192 192 194
304 306 307 309 311 314 316 319 319 320 322 326 331 334 338 342 345 347 348 348 349 350 352 354 355 356 356 355 353 351 351 350 351 352 354 358 4 34 179 187 190 191 193
304 306 307 309 311 313 315 317 317 318 320 324 329 333 336 341 345 347 348 348 349 351 352 354 356 357 357 357 354 352 351 351 352 355 0 9 18 99 151 166 175 179 183
305 306 308 309 311 312 314 316 315 316 318 322 327 331 335 339 344 347 348 349 349 350 352 354 356 357 357 357 357 354 352 352 353 358 8 23 46 115 149 158 164 170 174
305 307 308 309 310 312 313 314 314 314 316 320 325 329 334 338 343 346 348 349 349 351 352 354 356 357 358 358 358 356 354 353 354 1 19 45 76 121 152 160 163 164 169
306 307 309 309 310 311 312 313 312 312 314 318 323 328 332 337 342 346 348 348 349 350 352 354 356 357 358 358 359 358 356 354 354 2 25 75 110 137 154 164 168 166 168
305 306 308 309 309 310 311 311 311 310 313 316 321 326 331 336 341 345 347 348 349 350 351 353 355 357 358 359 359 358 356 355 351 352 37 134 145 150 159 166 170 170 171
303 304 306 307 308 309 309 310 308 308 311 314 319 324 329 335 340 344 347 348 349 350 351 353 355 357 358 358 359 359 357 355 351 326 189 163 160 160 162 164 167 169 169
300 302 303 305 306 307 308 307 306 306 309 312 317 323 328 334 340 344 346 348 349 349 351 352 354 356 358 358 359 360 359 355 349 287 192 178 170 164 164 167 169 171 171
297 298 299 301 303 304 304 304 303 303 306 310 315 321 327 333 339 344 346 348 349 349 350 352 354 356 358 359 359 360 0 358 350 258 188 181 175 170 167 169 173 175 175
294 294 295 296 298 299 300 300 299 299 303 307 313 319 325 332 339 344 347 348 349 349 350 352 354 356 358 359 0 0 1 360 355 261 187 180 176 173 171 171 174 176 177
289 289 289 290 293 294 295 294 293 295 299 304 311 317 324 331 339 344 347 348 349 349 350 352 354 356 358 359 1 2 2 2 359 307 186 181 177 174 172 172 175 177 178
284 283 284 284 286 287 287 287 287 291 295 301 308 315 323 331 339 344 347 348 349 350 351 353 355 356 358 360 1 2 3 4 3 2 183 181 179 176 172 171 173 177 179
Height
5697 5687 5676 5665 5653 5640 5627 5612 5597 5581 5565 5548 5531 5514 5496 5478 5460 5442 5425 5408 5392 5375 5359 5344 5330 5316 5304 5293 5283 5274 5265 5258 5253 5249 5243 5240 5237 5238 5241 5246 5255 5267 5283
5687 5678 5667 5656 5644 5631 5618 5603 5588 5572 5556 5540 5523 5506 5489 5471 5453 5436 5419 5403 5387 5371 5356 5341 5327 5314 5302 5291 5280 5271 5263 5256 5250 5245 5241 5236 5234 5234 5236 5241 5249 5261 5275
5678 5668 5658 5647 5635 5622 5609 5595 5580 5564 5548 5532 5516 5499 5482 5464 5447 5430 5414 5398 5382 5367 5352 5338 5324 5312 5300 5289 5279 5270 5261 5254 5248 5243 5239 5234 5232 5231 5233 5238 5245 5256 5269
5668 5659 5649 5638 5626 5613 5600 5586 5571 5556 5540 5524 5508 5491 5475 5458 5441 5425 5409 5394 5379 5363 5349 5335 5321 5310 5298 5288 5278 5269 5261 5253 5247 5241 5237 5233 5230 5229 5231 5235 5243 5253 5265
5659 5649 5639 5628 5617 5604 5592 5578 5563 5548 5533 5518 5502 5485 5469 5453 5436 5421 5406 5391 5375 5360 5345 5332 5319 5307 5297 5286 5277 5268 5260 5253 5246 5241 5236 5232 5230 5228 5230 5233 5241 5250 5261
5649 5639 5629 5618 5607 5595 5583 5569 5555 5541 5526 5511 5495 5479 5463 5447 5432 5416 5400 5386 5371 5357 5343 5330 5318 5306 5296 5286 5276 5267 5259 5252 5245 5240 5235 5232 5229 5228 5229 5233 5239 5248 5259
5638 5629 5619 5608 5597 5586 5574 5561 5547 5533 5519 5504 5489 5474 5458 5443 5427 5412 5396 5381 5367 5354 5341 5328 5316 5305 5295 5285 5276 5268 5260 5252 5245 5240 5235 5231 5229 5228 5229 5233 5239 5247 5257
5627 5618 5608 5598 5587 5576 5565 5552 5539 5526 5512 5498 5483 5468 5453 5439 5424 5409 5394 5379 5365 5352 5339 5327 5315 5304 5293 5284 5276 5267 5260 5252 5245 5240 5235 5231 5229 5228 5229 5232 5238 5246 5255
5616 5607 5597 5587 5577 5566 5555 5544 5531 5518 5505 5492 5478 5463 5449 5434 5420 5405 5391 5377 5363 5350 5337 5325 5314 5303 5292 5283 5275 5267 5259 5252 5245 5239 5234 5230 5228 5227 5228 5232 5237 5245 5254
5604 5595 5586 5576 5566 5556 5546 5535 5523 5511 5498 5485 5472 5458 5445 5431 5416 5402 5389 5376 5363 5349 5336 5324 5312 5301 5291 5282 5274 5266 5259 5252 5245 5239 5234 5230 5227 5227 5228 5231 5236 5244 5252
5592 5583 5574 5565 5556 5546 5536 5526 5515 5503 5491 5479 5466 5454 5440 5427 5413 5399 5385 5373 5360 5347 5335 5323 5311 5300 5290 5281 5272 5265 5258 5251 5245 5239 5234 5230 5227 5227 5228 5231 5236 5242 5251
5579 5571 5562 5553 5545 5536 5526 5517 5507 5495 5484 5472 5460 5447 5434 5422 5409 5395 5382 5370 5357 5345 5334 5322 5311 5300 5289 5279 5271 5264 5257 5251 5245 5239 5234 5230 5228 5227 5228 5230 5235 5241 5249
5565 5558 5550 5542 5534 5525 5517 5508 5498 5488 5477 5466 5454 5442 5429 5417 5405 5392 5380 5367 5355 5343 5332 5320 5309 5299 5288 5278 5270 5263 5257 5251 5245 5240 5235 5231 5228 5227 5227 5230 5234 5240 5247
5552 5545 5538 5531 5523 5515 5507 5499 5490 5480 5470 5460 5448 5437 5425 5413 5401 5389 5377 5365 5353 5342 5330 5319 5308 5297 5287 5277 5270 5263 5256 5251 5246 5241 5237 5233 5230 5228 5228 5230 5234 5239 5245
5539 5533 5526 5519 5512 5505 5498 5490 5481 5473 5463 5453 5443 5432 5421 5409 5398 5387 5375 5364 5353 5341 5330 5318 5307 5297 5287 5278 5269 5263 5257 5252 5247 5242 5238 5235 5232 5230 5230 5231 5234 5238 5244
5528 5521 5514 5508 5501 5495 5488 5481 5473 5465 5456 5447 5437 5427 5416 5405 5394 5384 5373 5362 5351 5340 5329 5318 5307 5297 5288 5279 5270 5263 5257 5252 5248 5243 5240 5237 5235 5233 5233 5234 5236 5239 5244
5515 5509 5503 5497 5491 5484 5478 5472 5465 5457 5449 5441 5432 5422 5412 5402 5391 5381 5370 5359 5349 5338 5328 5317 5307 5297 5288 5279 5271 5264 5258 5253 5249 5245 5242 5240 5238 5237 5236 5237 5239 5242 5246
5503 5498 5492 5486 5480 5474 5469 5463 5456 5449 5442 5434 5426 5417 5407 5398 5388 5377 5367 5357 5347 5337 5327 5317 5307 5297 5288 5279 5271 5264 5258 5254 5250 5247 5244 5243 5241 5241 5241 5242 5243 5246 5249
5491 5486 5481 5475 5470 5464 5459 5453 5448 5441 5435 5428 5420 5412 5403 5394 5384 5374 5364 5355 5345 5335 5326 5316 5307 5297 5288 5280 5272 5265 5259 5254 5251 5248 5247 5245 5245 5245 5245 5246 5248 5250 5254
5479 5474 5469 5464 5459 5454 5449 5444 5439 5433 5428 5421 5414 5407 5398 5389 5381 5371 5362 5352 5343 5334 5325 5316 5307 5298 5289 5280 5272 5265 5259 5255 5252 5250 5248 5248 5248 5248 5249 5250 5252 5255 5258
5467 5462 5458 5453 5448 5444 5439 5435 5430 5425 5420 5415 5408 5401 5393 5385 5377 5368 5359 5350 5341 5333 5324 5315 5306 5297 5289 5280 5272 5265 5259 5255 5252 5250 5249 5249 5250 5251 5252 5254 5256 5259 5263
5454 5449 5446 5442 5438 5433 5430 5426 5422 5417 5413 5408 5402 5396 5389 5381 5373 5365 5356 5348 5339 5331 5323 5315 5306 5297 5289 5280 5273 5266 5259 5255 5252 5251 5250 5251 5252 5254 5255 5257 5260 5263 5267
5439 5436 5432 5430 5426 5423 5420 5417 5413 5410 5406 5401 5396 5390 5384 5377 5370 5362 5354 5346 5338 5330 5322 5314 5306 5297 5289 5280 5272 5265 5259 5255 5252 5250 5250 5252 5254 5256 5258 5260 5263 5267 5271
5423 5421 5419 5417 5415 5412 5410 5408 5405 5402 5399 5395 5390 5385 5379 5373 5366 5359 5351 5343 5336 5328 5321 5313 5305 5297 5289 5280 5273 5265 5259 5254 5251 5250 5250 5252 5254 5258 5261 5264 5267 5271 5275
5406 5404 5404 5403 5402 5401 5400 5398 5396 5394 5391 5388 5385 5380 5375 5369 5362 5356 5349 5341 5334 5327 5319 5312 5304 5297 5289 5281 5273 5265 5259 5254 5250 5249 5249 5252 5255 5259 5263 5266 5270 5274 5279
5387 5388 5388 5388 5389 5389 5389 5389 5388 5386 5384 5382 5379 5375 5370 5365 5359 5353 5346 5339 5332 5325 5318 5311 5304 5296 5289 5281 5273 5266 5259 5254 5250 5248 5249 5251 5255 5260 5264 5268 5273 5277 5282